Regional Weather Roundup
Issued by NWS Newport/Morehead, NC

Home | Current Version | Previous Version | Text Only | Print | Product List | Glossary On
Versions: 1 2 3 4 5 6 7 8 9 10 11 12 13 14 15 16 17 18 19 20 21 22 23 24 25 26 27 28 29 30 31 32 33 34 35 36 37 38 39 40 41 42 43 44 45 46 47 48 49 50
000
ASUS42 KMHX 211413
RWRMHX
WEATHER ROUNDUP FOR EASTERN NORTH CAROLINA
NATIONAL WEATHER SERVICE NEWPORT/MOREHEAD CITY NC
1000 AM EDT SAT APR 21 2018

NOTE: "FAIR" INDICATES FEW OR NO CLOUDS BELOW 12,000 FEET
WITH NO SIGNIFICANT WEATHER AND/OR OBSTRUCTIONS TO VISIBILITY

NCZ015>017-031-032-045>047-102-103-211500-
NORTH COAST

CITY           SKY/WX    TMP DP  RH WIND       PRES   REMARKS
EDENTON        FAIR      57  41  55 E5        30.46S
ELIZABETH CITY FAIR      55  41  59 N6        30.47R
KITTY HAWK     FAIR      51  41  69 NE7       30.45R
MANTEO         FAIR      53  43  69 E12       30.47R

$$

NCZ045>047-081-094-103-104-211500-
CENTRAL COAST

CITY           SKY/WX    TMP DP  RH WIND       PRES   REMARKS
FRISCO         FAIR      57  36  45 NE8G17    30.44R

$$

NCZ095-097-098-100-101-211500-
SOUTHERN COAST

CITY           SKY/WX    TMP DP  RH WIND       PRES   REMARKS
BEAUFORT       FAIR      60  35  39 VRB7      30.44R
CEDAR ISLAND   NOT AVBL
JACKSONVILLE   FAIR      60  36  40 E5        30.44R
PINEY ISLAND   NOT AVBL
WILMINGTON     FAIR      60  44  55 E12       30.44R


$$

NCZ011>013-027>030-043-044-078>080-089-090>093-098-211500-
COASTAL PLAIN

CITY           SKY/WX    TMP DP  RH WIND       PRES   REMARKS
AHOSKIE        FAIR      53  41  64 NW3       30.46S
CLINTON        FAIR      58  45  62 NE3       30.46S
ELIZABETHTOWN  FAIR      57  43  58 MISG      30.44S
GOLDSBORO      FAIR      58  43  57 CALM      30.43S
GREENVILLE     FAIR      57  37  47 CALM      30.45S
HAVELOCK       SUNNY     61  39  44 NE9       30.45R
KENANSVILLE    FAIR      57  45  62 SE6       30.45S
KINSTON        FAIR      57  39  51 CALM      30.45S
NEW BERN       FAIR      57  38  48 E3        30.46R
RICHLANDS      FAIR      58  37  45 VRB5      30.45S
ROCKY MOUNT    FAIR      55  44  66 CALM      30.46S
WASHINGTON     FAIR      58  34  40 CALM      30.45S
WHITEVILLE     FAIR      58  43  57 E8        30.43R

$$

AMZ130-135-150-152-154-156-158-170-250-252-270-ANZ085-086-088-633-658-670-211500-
MARINE OBSERVATIONS

STATION/POSITION TIME  TEMP    WIND        PRES    WAVE   SWELL
                       AIR SEA DIR/SP/G            HT/PER HT/PER
                 (UTC) (F)     (DEG/KT/KT) (MB)    (FT/S) (FT/S)
CHESAPEAKE LIGHT NOT AVBL
64 E VA BEACH    1350   47 48  360/ 10/ 10 1031.7    3/ 6   2/ 6
DUCK             1348   48 52   60/ 11/ 11 1031.2
2 E DUCK         1400      51                N/A     2/13
OREGON INLET     1342   51 54   10/ 11/ 13 1031.2
13E OREGON INLT  1348      50                N/A     3/ 7   2/ 7
HATTERAS CG      1348   54 60   30/ 10/ 14 1030.6
DIAMOND BUOY     1400   54 68   20/ 16/ 21 1030.7
CAPE LOOKOUT     1400           40/ 11/ 13 1030.9
BEAUFORT LAB     1348   58 62   60/  8/ 12 1030.8
30 SE NEW RVR IN 1308   59 65   80/ 12/ 16 1029.9
30 SE NEW RVR IN 1400      66                N/A     3/ 8
27 SE WRIGHTSVLE 1308   61 66   80/ 14/ 25 1029.8
5 SE WRIGHTSVLE  1308   59 60   70/ 10/ 16 1029.6
225 S CAPE HAT   1400   64 72   50/ 12/ 17 1026.9
41 SE CHARLESTON 1400   65 67   60/ 17/ 21 1027.6

$$




USA.gov is the U.S. government's official web portal to all federal, state and local government web resources and services.